| time (UTC) | temp C | wind direction | speed KPH | gust KPH | rain 1hr cm | rain 24hr cm | rain mn cm | humidity % | barometer mb |
| 20260901224505 | 21 | 261 | 4.8 | 17.7 | 0.00 | 0.00 | 0.00 | 55 | 1014.4 |
| 20260901224003 | 21 | 268 | 4.8 | 14.5 | 0.00 | 0.00 | 0.00 | 55 | 1014.4 |
| 20260901223524 | 21 | 297 | 4.8 | 14.5 | 0.00 | 0.00 | 0.00 | 56 | 1014.4 |
| 20260901223003 | 21 | 286 | 4.8 | 19.3 | 0.00 | 0.00 | 0.00 | 56 | 1014.4 |
| 20260901222503 | 21 | 288 | 4.8 | 19.3 | 0.00 | 0.00 | 0.00 | 56 | 1014.4 |
| 20260901222003 | 21 | 279 | 4.8 | 20.9 | 0.00 | 0.00 | 0.00 | 56 | 1014.4 |
| 20260901221503 | 21 | 272 | 4.8 | 20.9 | 0.00 | 0.00 | 0.00 | 56 | 1014.4 |
| 20260901221003 | 21 | 281 | 4.8 | 19.3 | 0.00 | 0.00 | 0.00 | 57 | 1014.4 |
| 20260901220503 | 21 | 269 | 4.8 | 19.3 | 0.00 | 0.00 | 0.00 | 57 | 1014.4 |
| 20260901220003 | 21 | 269 | 4.8 | 12.9 | 0.00 | 0.00 | 0.00 | 58 | 1014.4 |
| 20260901215503 | 21 | 275 | 4.8 | 16.1 | 0.00 | 0.00 | 0.00 | 58 | 1014.4 |
| 20260901215003 | 21 | 268 | 4.8 | 17.7 | 0.00 | 0.00 | 0.00 | 58 | 1014.4 |
| 20260901214503 | 21 | 272 | 6.4 | 17.7 | 0.00 | 0.00 | 0.00 | 57 | 1014.4 |
| 20260901214003 | 21 | 282 | 4.8 | 17.7 | 0.00 | 0.00 | 0.00 | 58 | 1014.4 |
| 20260901213524 | 21 | 309 | 3.2 | 12.9 | 0.00 | 0.00 | 0.00 | 58 | 1014.4 |
| 20260901213003 | 20 | 295 | 4.8 | 16.1 | 0.00 | 0.00 | 0.00 | 59 | 1014.4 |
| 20260901212503 | 20 | 266 | 4.8 | 16.1 | 0.00 | 0.00 | 0.00 | 59 | 1014.4 |
| 20260901212024 | 20 | 263 | 4.8 | 19.3 | 0.00 | 0.00 | 0.00 | 58 | 1014.4 |
| 20260901211503 | 20 | 264 | 4.8 | 19.3 | 0.00 | 0.00 | 0.00 | 59 | 1014.4 |
| 20260901211024 | 20 | 261 | 4.8 | 16.1 | 0.00 | 0.00 | 0.00 | 59 | 1014.4 |
| 20260901210503 | 20 | 256 | 4.8 | 16.1 | 0.00 | 0.00 | 0.00 | 58 | 1014.4 |
| 20260901210003 | 20 | 254 | 4.8 | 12.9 | 0.00 | 0.00 | 0.00 | 58 | 1014.4 |
| 20260901205524 | 20 | 257 | 3.2 | 11.3 | 0.00 | 0.00 | 0.00 | 58 | 1014.4 |
| 20260901205003 | 20 | 260 | 4.8 | 14.5 | 0.00 | 0.00 | 0.00 | 58 | 1014.4 |
| 20260901204503 | 20 | 264 | 4.8 | 14.5 | 0.00 | 0.00 | 0.00 | 58 | 1014.4 |
| 20260901204003 | 20 | 295 | 3.2 | 8.0 | 0.00 | 0.00 | 0.00 | 58 | 1014.4 |
| 20260901203503 | 20 | 260 | 3.2 | 8.0 | 0.00 | 0.00 | 0.00 | 59 | 1014.4 |
| 20260901203003 | 19 | 203 | 4.8 | 9.7 | 0.00 | 0.00 | 0.00 | 59 | 1014.4 |
| 20260901202503 | 19 | 235 | 4.8 | 16.1 | 0.00 | 0.00 | 0.00 | 59 | 1014.4 |
| 20260901202003 | 19 | 257 | 4.8 | 16.1 | 0.00 | 0.00 | 0.00 | 60 | 1014.4 |
| 20260901201503 | 19 | 254 | 3.2 | 11.3 | 0.00 | 0.00 | 0.00 | 59 | 1014.4 |
| 20260901201003 | 19 | 234 | 3.2 | 11.3 | 0.00 | 0.00 | 0.00 | 61 | 1014.4 |
| 20260901200503 | 19 | 246 | 4.8 | 11.3 | 0.00 | 0.00 | 0.00 | 61 | 1014.4 |
| 20260901200003 | 19 | 297 | 4.8 | 12.9 | 0.00 | 0.00 | 0.00 | 61 | 1014.4 |
| 20260901195503 | 18 | 295 | 3.2 | 12.9 | 0.00 | 0.00 | 0.00 | 63 | 1014.4 |
| 20260901195003 | 18 | 256 | 3.2 | 9.7 | 0.00 | 0.00 | 0.00 | 63 | 1014.4 |
| 20260901194503 | 18 | 251 | 3.2 | 12.9 | 0.00 | 0.00 | 0.00 | 63 | 1014.4 |
| 20260901194003 | 18 | 248 | 4.8 | 17.7 | 0.00 | 0.00 | 0.00 | 63 | 1014.4 |
| 20260901193503 | 18 | 267 | 3.2 | 17.7 | 0.00 | 0.00 | 0.00 | 64 | 1014.4 |
| 20260901193003 | 17 | 271 | 4.8 | 11.3 | 0.00 | 0.00 | 0.00 | 64 | 1014.4 |
| 20260901192503 | 17 | 248 | 4.8 | 12.9 | 0.00 | 0.00 | 0.00 | 65 | 1014.4 |
| 20260901192024 | 17 | 244 | 6.4 | 12.9 | 0.00 | 0.00 | 0.00 | 64 | 1014.4 |
| 20260901191503 | 17 | 241 | 6.4 | 12.9 | 0.00 | 0.00 | 0.00 | 65 | 1014.4 |
| 20260901191003 | 17 | 244 | 6.4 | 14.5 | 0.00 | 0.00 | 0.00 | 66 | 1014.4 |
| 20260901190503 | 17 | 261 | 4.8 | 14.5 | 0.00 | 0.00 | 0.00 | 67 | 1014.4 |
| 20260901190003 | 17 | 265 | 4.8 | 14.5 | 0.00 | 0.00 | 0.00 | 68 | 1014.4 |
| 20260901185503 | 17 | 253 | 4.8 | 14.5 | 0.00 | 0.00 | 0.00 | 67 | 1014.4 |
| 20260901185003 | 17 | 258 | 3.2 | 12.9 | 0.00 | 0.00 | 0.00 | 66 | 1014.4 |
| 20260901184503 | 17 | 268 | 3.2 | 11.3 | 0.00 | 0.00 | 0.00 | 67 | 1014.4 |
| 20260901184003 | 17 | 249 | 3.2 | 14.5 | 0.00 | 0.00 | 0.00 | 67 | 1014.4 |
| 20260901183503 | 17 | 243 | 4.8 | 14.5 | 0.00 | 0.00 | 0.00 | 66 | 1014.4 |
| 20260901183003 | 17 | 247 | 4.8 | 12.9 | 0.00 | 0.00 | 0.00 | 66 | 1014.4 |
| 20260901182503 | 17 | 245 | 4.8 | 12.9 | 0.00 | 0.00 | 0.00 | 66 | 1014.4 |
| 20260901182003 | 17 | 238 | 4.8 | 12.9 | 0.00 | 0.00 | 0.00 | 66 | 1014.4 |
| 20260901181503 | 17 | 232 | 4.8 | 14.5 | 0.00 | 0.00 | 0.00 | 66 | 1014.4 |
| 20260901181003 | 17 | 240 | 4.8 | 14.5 | 0.00 | 0.00 | 0.00 | 67 | 1014.4 |
| 20260901180503 | 17 | 250 | 4.8 | 16.1 | 0.00 | 0.00 | 0.00 | 67 | 1014.4 |
| 20260901180003 | 17 | 251 | 6.4 | 16.1 | 0.00 | 0.00 | 0.00 | 66 | 1014.4 |
| 20260901175524 | 17 | 244 | 4.8 | 14.5 | 0.00 | 0.00 | 0.00 | 66 | 1014.4 |
| 20260901175003 | 17 | 247 | 4.8 | 14.5 | 0.00 | 0.00 | 0.00 | 66 | 1014.4 |
| 20260901174503 | 17 | 230 | 6.4 | 14.5 | 0.00 | 0.00 | 0.00 | 66 | 1014.4 |
| 20260901174003 | 17 | 221 | 6.4 | 14.5 | 0.00 | 0.00 | 0.00 | 67 | 1014.4 |
| 20260901173524 | 16 | 235 | 4.8 | 14.5 | 0.00 | 0.00 | 0.00 | 67 | 1014.4 |
| 20260901173003 | 16 | 242 | 4.8 | 11.3 | 0.00 | 0.00 | 0.00 | 68 | 1014.4 |
| 20260901172503 | 16 | 249 | 4.8 | 11.3 | 0.00 | 0.00 | 0.00 | 69 | 1014.4 |
| 20260901172003 | 16 | 250 | 4.8 | 11.3 | 0.00 | 0.00 | 0.00 | 68 | 1014.4 |
| 20260901171503 | 16 | 255 | 4.8 | 12.9 | 0.00 | 0.00 | 0.00 | 67 | 1014.4 |
| 20260901171003 | 16 | 286 | 3.2 | 12.9 | 0.00 | 0.00 | 0.00 | 67 | 1014.4 |
| 20260901170524 | 16 | 307 | 3.2 | 12.9 | 0.00 | 0.00 | 0.00 | 67 | 1014.4 |
| 20260901170003 | 16 | 278 | 4.8 | 12.9 | 0.00 | 0.00 | 0.00 | 68 | 1014.4 |
| 20260901165503 | 16 | 259 | 4.8 | 11.3 | 0.00 | 0.00 | 0.00 | 70 | 1014.4 |
| 20260901165004 | 16 | 253 | 4.8 | 12.9 | 0.00 | 0.00 | 0.00 | 71 | 1014.4 |
| 20260901164504 | 16 | 252 | 4.8 | 14.5 | 0.00 | 0.00 | 0.00 | 71 | 1014.4 |
| 20260901164003 | 16 | 237 | 4.8 | 14.5 | 0.00 | 0.00 | 0.00 | 71 | 1014.4 |
| 20260901163503 | 16 | 225 | 6.4 | 14.5 | 0.00 | 0.00 | 0.00 | 72 | 1014.4 |
| 20260901163003 | 16 | 236 | 6.4 | 14.5 | 0.00 | 0.00 | 0.00 | 73 | 1014.4 |
| 20260901162503 | 15 | 240 | 6.4 | 14.5 | 0.00 | 0.00 | 0.00 | 73 | 1014.4 |
| 20260901162003 | 15 | 232 | 4.8 | 12.9 | 0.00 | 0.00 | 0.00 | 73 | 1014.4 |
| 20260901161503 | 15 | 248 | 4.8 | 12.9 | 0.00 | 0.00 | 0.00 | 73 | 1014.4 |
| 20260901161024 | 15 | 246 | 4.8 | 12.9 | 0.00 | 0.00 | 0.00 | 74 | 1014.4 |
| 20260901160503 | 15 | 238 | 4.8 | 14.5 | 0.00 | 0.00 | 0.00 | 74 | 1014.4 |
| 20260901160003 | 15 | 243 | 4.8 | 14.5 | 0.00 | 0.00 | 0.00 | 75 | 1014.4 |
| 20260901155524 | 15 | 244 | 3.2 | 8.0 | 0.00 | 0.00 | 0.00 | 76 | 1014.4 |
| 20260901155003 | 15 | 239 | 3.2 | 9.7 | 0.00 | 0.00 | 0.00 | 76 | 1014.4 |
| 20260901154524 | 15 | 242 | 4.8 | 14.5 | 0.00 | 0.00 | 0.00 | 76 | 1014.4 |
| 20260901154003 | 15 | 250 | 6.4 | 14.5 | 0.00 | 0.00 | 0.00 | 76 | 1014.4 |
| 20260901153503 | 15 | 251 | 4.8 | 14.5 | 0.00 | 0.00 | 0.00 | 76 | 1014.4 |
| 20260901153003 | 15 | 253 | 4.8 | 12.9 | 0.00 | 0.00 | 0.00 | 77 | 1014.4 |
| 20260901152503 | 15 | 248 | 3.2 | 12.9 | 0.00 | 0.00 | 0.00 | 78 | 1014.4 |
| 20260901152003 | 15 | 224 | 3.2 | 12.9 | 0.00 | 0.00 | 0.00 | 78 | 1014.4 |
| 20260901151503 | 15 | 218 | 3.2 | 9.7 | 0.00 | 0.00 | 0.00 | 79 | 1014.4 |
| 20260901151003 | 14 | 240 | 3.2 | 11.3 | 0.00 | 0.00 | 0.00 | 79 | 1014.4 |
| 20260901150503 | 14 | 247 | 1.6 | 11.3 | 0.00 | 0.00 | 0.00 | 79 | 1014.4 |
| 20260901150003 | 14 | 240 | 1.6 | 8.0 | 0.00 | 0.00 | 0.00 | 79 | 1014.4 |
| 20260901145503 | 14 | 230 | 3.2 | 11.3 | 0.00 | 0.00 | 0.00 | 79 | 1014.4 |
| 20260901145003 | 14 | 219 | 3.2 | 11.3 | 0.00 | 0.00 | 0.00 | 79 | 1014.4 |
| 20260901144503 | 14 | 208 | 3.2 | 8.0 | 0.00 | 0.00 | 0.00 | 79 | 1014.4 |
| 20260901144003 | 14 | 196 | 3.2 | 8.0 | 0.00 | 0.00 | 0.00 | 79 | 1014.4 |
| 20260901143503 | 14 | 195 | 4.8 | 9.7 | 0.00 | 0.00 | 0.00 | 79 | 1014.4 |
| 20260901143003 | 14 | 193 | 4.8 | 9.7 | 0.00 | 0.00 | 0.00 | 79 | 1014.4 |
| 20260901142503 | 14 | 186 | 6.4 | 9.7 | 0.00 | 0.00 | 0.00 | 79 | 1014.4 |
| 20260901142003 | 14 | 188 | 4.8 | 14.5 | 0.00 | 0.00 | 0.00 | 79 | 1014.4 |
| 20260901141503 | 13 | 192 | 4.8 | 14.5 | 0.00 | 0.00 | 0.00 | 79 | 1014.4 |
| 20260901141003 | 13 | 191 | 4.8 | 12.9 | 0.00 | 0.00 | 0.00 | 79 | 1014.4 |
| 20260901140503 | 13 | 196 | 4.8 | 9.7 | 0.00 | 0.00 | 0.00 | 79 | 1014.4 |
| 20260901140024 | 13 | 201 | 3.2 | 9.7 | 0.00 | 0.00 | 0.00 | 80 | 1014.4 |
| 20260901135503 | 13 | 191 | 4.8 | 11.3 | 0.00 | 0.00 | 0.00 | 80 | 1014.4 |
| 20260901135003 | 13 | 188 | 6.4 | 12.9 | 0.00 | 0.00 | 0.00 | 80 | 1014.4 |
| 20260901134524 | 13 | 192 | 4.8 | 12.9 | 0.00 | 0.00 | 0.00 | 80 | 1014.4 |
| 20260901134024 | 13 | 193 | 4.8 | 9.7 | 0.00 | 0.00 | 0.00 | 80 | 1014.4 |
| 20260901133525 | 13 | 192 | 3.2 | 11.3 | 0.00 | 0.00 | 0.00 | 80 | 1014.4 |
| 20260901133003 | 13 | 191 | 3.2 | 11.3 | 0.00 | 0.00 | 0.00 | 80 | 1014.4 |
| 20260901132503 | 13 | 193 | 3.2 | 9.7 | 0.00 | 0.00 | 0.00 | 80 | 1014.4 |
| 20260901132003 | 13 | 180 | 3.2 | 9.7 | 0.00 | 0.00 | 0.00 | 80 | 1014.4 |
| 20260901131503 | 13 | 173 | 3.2 | 9.7 | 0.00 | 0.00 | 0.00 | 80 | 1014.4 |
| 20260901131003 | 13 | 189 | 3.2 | 11.3 | 0.00 | 0.00 | 0.00 | 80 | 1014.4 |
| 20260901130503 | 13 | 188 | 3.2 | 11.3 | 0.00 | 0.00 | 0.00 | 80 | 1014.4 |
| 20260901130024 | 13 | 187 | 3.2 | 8.0 | 0.00 | 0.00 | 0.00 | 80 | 1014.4 |
| 20260901125524 | 13 | 186 | 4.8 | 11.3 | 0.00 | 0.00 | 0.00 | 80 | 1014.4 |
| 20260901125003 | 13 | 189 | 3.2 | 9.7 | 0.00 | 0.00 | 0.00 | 80 | 1014.4 |
| 20260901124504 | 13 | 190 | 3.2 | 8.0 | 0.00 | 0.00 | 0.00 | 80 | 1014.4 |
| 20260901124003 | 13 | 196 | 3.2 | 11.3 | 0.00 | 0.00 | 0.00 | 80 | 1014.4 |
| 20260901123503 | 13 | 203 | 3.2 | 11.3 | 0.00 | 0.00 | 0.00 | 80 | 1014.4 |
| 20260901123003 | 13 | 191 | 3.2 | 9.7 | 0.00 | 0.00 | 0.00 | 80 | 1014.4 |
| 20260901122524 | 13 | 185 | 3.2 | 11.3 | 0.00 | 0.00 | 0.00 | 80 | 1014.4 |
| 20260901122003 | 13 | 193 | 3.2 | 11.3 | 0.00 | 0.00 | 0.00 | 80 | 1014.4 |
| 20260901121524 | 13 | 194 | 3.2 | 9.7 | 0.00 | 0.00 | 0.00 | 80 | 1014.4 |
| 20260901121003 | 13 | 189 | 3.2 | 8.0 | 0.00 | 0.00 | 0.00 | 80 | 1014.4 |
| 20260901120503 | 13 | 185 | 3.2 | 8.0 | 0.00 | 0.00 | 0.00 | 80 | 1014.4 |
| 20260901120003 | 13 | 200 | 3.2 | 8.0 | 0.00 | 0.00 | 0.00 | 80 | 1014.4 |
| 20260901115503 | 13 | 203 | 3.2 | 8.0 | 0.00 | 0.00 | 0.00 | 80 | 1014.4 |
| 20260901115024 | 13 | 206 | 3.2 | 8.0 | 0.00 | 0.00 | 0.00 | 80 | 1014.4 |
| 20260901114524 | 13 | 203 | 3.2 | 11.3 | 0.00 | 0.00 | 0.00 | 80 | 1014.4 |
| 20260901114001 | 13 | 200 | 3.2 | 11.3 | 0.00 | 0.00 | 0.00 | 80 | 1014.4 |
| 20260901113502 | 13 | 199 | 3.2 | 9.7 | 0.00 | 0.00 | 0.00 | 80 | 1014.4 |
| 20260901113002 | 13 | 199 | 1.6 | 9.7 | 0.00 | 0.00 | 0.00 | 80 | 1014.4 |
| 20260901112523 | 13 | 206 | 3.2 | 9.7 | 0.00 | 0.00 | 0.00 | 81 | 1014.4 |
| 20260901112002 | 13 | 216 | 4.8 | 12.9 | 0.00 | 0.00 | 0.00 | 80 | 1014.4 |
| 20260901111502 | 13 | 213 | 3.2 | 12.9 | 0.00 | 0.00 | 0.00 | 81 | 1014.4 |
| 20260901111002 | 13 | 215 | 3.2 | 9.7 | 0.00 | 0.00 | 0.00 | 81 | 1014.4 |
| 20260901110501 | 13 | 235 | 3.2 | 8.0 | 0.00 | 0.00 | 0.00 | 80 | 1014.4 |
| 20260901110002 | 13 | 240 | 3.2 | 8.0 | 0.00 | 0.00 | 0.00 | 80 | 1014.4 |
| 20260901105502 | 13 | 240 | 3.2 | 9.7 | 0.00 | 0.00 | 0.00 | 80 | 1014.4 |
| 20260901105001 | 13 | 216 | 3.2 | 9.7 | 0.00 | 0.00 | 0.00 | 80 | 1014.4 |
| 20260901104502 | 13 | 207 | 3.2 | 8.0 | 0.00 | 0.00 | 0.00 | 80 | 1014.4 |
| 20260901104001 | 13 | 203 | 3.2 | 8.0 | 0.00 | 0.00 | 0.00 | 80 | 1014.4 |
| 20260901103501 | 13 | 203 | 1.6 | 6.4 | 0.00 | 0.00 | 0.00 | 80 | 1014.4 |
| 20260901103002 | 13 | 221 | 3.2 | 12.9 | 0.00 | 0.00 | 0.00 | 80 | 1014.4 |
| 20260901102501 | 13 | 230 | 3.2 | 12.9 | 0.00 | 0.00 | 0.00 | 79 | 1014.4 |
| 20260901102002 | 13 | 237 | 1.6 | 11.3 | 0.00 | 0.00 | 0.00 | 79 | 1014.4 |
| 20260901101502 | 13 | 239 | 1.6 | 11.3 | 0.00 | 0.00 | 0.00 | 79 | 1014.4 |
| 20260901101002 | 13 | 241 | 1.6 | 4.8 | 0.00 | 0.00 | 0.00 | 79 | 1014.4 |
| 20260901100502 | 13 | 238 | 1.6 | 6.4 | 0.00 | 0.00 | 0.00 | 79 | 1014.4 |
| 20260901100002 | 13 | 228 | 1.6 | 8.0 | 0.00 | 0.00 | 0.00 | 79 | 1014.4 |
| 20260901095501 | 13 | 201 | 1.6 | 8.0 | 0.00 | 0.00 | 0.00 | 79 | 1014.4 |
| 20260901095004 | 13 | 175 | 1.6 | 6.4 | 0.00 | 0.00 | 0.00 | 79 | 1014.4 |
| 20260901094502 | 13 | 174 | 1.6 | 6.4 | 0.00 | 0.00 | 0.00 | 79 | 1014.4 |
| 20260901094001 | 13 | 184 | 1.6 | 9.7 | 0.00 | 0.00 | 0.00 | 79 | 1014.4 |
| 20260901093502 | 13 | 200 | 1.6 | 9.7 | 0.00 | 0.00 | 0.00 | 79 | 1014.4 |
| 20260901093002 | 13 | 198 | 1.6 | 8.0 | 0.00 | 0.00 | 0.00 | 79 | 1014.4 |
| 20260901092502 | 13 | 194 | 1.6 | 8.0 | 0.00 | 0.00 | 0.00 | 79 | 1014.4 |
| 20260901092023 | 13 | 213 | 1.6 | 6.4 | 0.00 | 0.00 | 0.00 | 80 | 1014.4 |
| 20260901091502 | 13 | 233 | 3.2 | 8.0 | 0.00 | 0.00 | 0.00 | 80 | 1014.4 |
| 20260901091002 | 13 | 247 | 4.8 | 9.7 | 0.00 | 0.00 | 0.00 | 80 | 1014.4 |
| 20260901090502 | 13 | 252 | 4.8 | 9.7 | 0.00 | 0.00 | 0.00 | 80 | 1014.4 |
| 20260901090002 | 13 | 253 | 4.8 | 14.5 | 0.00 | 0.00 | 0.00 | 80 | 1014.4 |
| 20260901085502 | 13 | 259 | 3.2 | 14.5 | 0.00 | 0.00 | 0.00 | 80 | 1014.4 |
| 20260901085002 | 13 | 257 | 3.2 | 11.3 | 0.00 | 0.00 | 0.00 | 80 | 1014.4 |
| 20260901084502 | 13 | 251 | 4.8 | 12.9 | 0.00 | 0.00 | 0.00 | 80 | 1014.4 |
| 20260901084023 | 13 | 249 | 3.2 | 12.9 | 0.00 | 0.00 | 0.00 | 80 | 1014.4 |
| 20260901083502 | 13 | 248 | 3.2 | 8.0 | 0.00 | 0.00 | 0.00 | 81 | 1014.4 |
| 20260901083023 | 13 | 252 | 3.2 | 11.3 | 0.00 | 0.00 | 0.00 | 81 | 1014.4 |
| 20260901082502 | 13 | 250 | 3.2 | 11.3 | 0.00 | 0.00 | 0.00 | 81 | 1014.4 |
| 20260901082001 | 13 | 235 | 3.2 | 9.7 | 0.00 | 0.00 | 0.00 | 81 | 1014.4 |
| 20260901081502 | 13 | 237 | 3.2 | 9.7 | 0.00 | 0.00 | 0.00 | 81 | 1014.4 |
| 20260901081023 | 13 | 243 | 3.2 | 8.0 | 0.00 | 0.00 | 0.00 | 81 | 1014.4 |
| 20260901080502 | 13 | 239 | 3.2 | 9.7 | 0.00 | 0.00 | 0.00 | 81 | 1014.4 |
| 20260901080002 | 13 | 241 | 4.8 | 14.5 | 0.00 | 0.00 | 0.00 | 81 | 1014.4 |
| 20260901075502 | 13 | 244 | 3.2 | 14.5 | 0.00 | 0.00 | 0.00 | 81 | 1014.4 |
| 20260901075002 | 13 | 242 | 3.2 | 11.3 | 0.00 | 0.00 | 0.00 | 81 | 1014.4 |
| 20260901074523 | 13 | 246 | 3.2 | 11.3 | 0.00 | 0.00 | 0.00 | 81 | 1014.4 |
| 20260901074002 | 13 | 243 | 3.2 | 12.9 | 0.00 | 0.00 | 0.00 | 81 | 1014.4 |
| 20260901073502 | 13 | 241 | 3.2 | 12.9 | 0.00 | 0.00 | 0.00 | 81 | 1014.4 |
| 20260901073002 | 13 | 250 | 3.2 | 11.3 | 0.00 | 0.00 | 0.00 | 81 | 1014.4 |
| 20260901072502 | 13 | 258 | 3.2 | 11.3 | 0.00 | 0.00 | 0.00 | 81 | 1014.4 |
| 20260901072002 | 13 | 254 | 3.2 | 6.4 | 0.00 | 0.00 | 0.00 | 80 | 1014.4 |
| 20260901071502 | 13 | 254 | 3.2 | 6.4 | 0.00 | 0.00 | 0.00 | 80 | 1014.4 |
| 20260901071002 | 13 | 252 | 3.2 | 11.3 | 0.00 | 0.00 | 0.00 | 80 | 1014.4 |
| 20260901070523 | 13 | 245 | 3.2 | 11.3 | 0.00 | 0.00 | 0.00 | 80 | 1014.4 |
| 20260901070009 | 13 | 246 | 3.2 | 12.9 | 0.00 | 0.00 | 0.00 | 80 | 1014.4 |
| 20260901065523 | 13 | 243 | 4.8 | 12.9 | 0.00 | 0.00 | 0.00 | 80 | 1014.4 |
| 20260901065002 | 13 | 240 | 4.8 | 11.3 | 0.00 | 0.00 | 0.00 | 80 | 1014.4 |
| 20260901064502 | 13 | 246 | 4.8 | 14.5 | 0.00 | 0.00 | 0.00 | 80 | 1014.4 |
| 20260901064002 | 13 | 247 | 4.8 | 14.5 | 0.00 | 0.00 | 0.00 | 80 | 1014.4 |
| 20260901063502 | 13 | 249 | 6.4 | 16.1 | 0.00 | 0.00 | 0.00 | 80 | 1014.4 |
| 20260901063001 | 13 | 248 | 4.8 | 16.1 | 0.00 | 0.00 | 0.00 | 80 | 1014.4 |
| 20260901062502 | 13 | 245 | 4.8 | 12.9 | 0.00 | 0.00 | 0.00 | 80 | 1014.4 |
| 20260901062002 | 13 | 250 | 4.8 | 12.9 | 0.00 | 0.00 | 0.00 | 80 | 1014.4 |
| 20260901061502 | 13 | 256 | 3.2 | 12.9 | 0.00 | 0.00 | 0.00 | 80 | 1014.4 |
| 20260901061002 | 13 | 259 | 3.2 | 12.9 | 0.00 | 0.00 | 0.00 | 81 | 1014.4 |
| 20260901060502 | 13 | 255 | 4.8 | 17.7 | 0.00 | 0.00 | 0.00 | 81 | 1014.4 |
| 20260901060023 | 13 | 253 | 4.8 | 17.7 | 0.00 | 0.00 | 0.00 | 81 | 1014.4 |
| 20260901055502 | 13 | 254 | 3.2 | 14.5 | 0.00 | 0.00 | 0.00 | 82 | 1014.4 |
| 20260901055023 | 13 | 247 | 3.2 | 11.3 | 0.00 | 0.00 | 0.00 | 82 | 1014.4 |
| 20260901054502 | 13 | 255 | 4.8 | 14.5 | 0.00 | 0.00 | 0.00 | 82 | 1014.4 |
| 20260901054023 | 13 | 259 | 4.8 | 14.5 | 0.00 | 0.00 | 0.00 | 82 | 1014.4 |
| 20260901053502 | 13 | 256 | 4.8 | 12.9 | 0.00 | 0.00 | 0.00 | 82 | 1012.5 |
| 20260901053002 | 13 | 257 | 6.4 | 14.5 | 0.00 | 0.00 | 0.00 | 82 | 1012.5 |
| 20260901052502 | 13 | 253 | 4.8 | 14.5 | 0.00 | 0.00 | 0.00 | 82 | 1012.5 |
| 20260901052002 | 13 | 252 | 4.8 | 17.7 | 0.00 | 0.00 | 0.00 | 82 | 1012.5 |
| 20260901051502 | 13 | 256 | 3.2 | 17.7 | 0.00 | 0.00 | 0.00 | 82 | 1012.5 |
| 20260901051002 | 13 | 257 | 4.8 | 17.7 | 0.00 | 0.00 | 0.00 | 82 | 1012.5 |
| 20260901050502 | 13 | 257 | 4.8 | 17.7 | 0.00 | 0.00 | 0.00 | 82 | 1012.5 |
| 20260901050002 | 13 | 252 | 4.8 | 17.7 | 0.00 | 0.00 | 0.00 | 82 | 1012.5 |
| 20260901045502 | 13 | 255 | 4.8 | 14.5 | 0.00 | 0.00 | 0.00 | 82 | 1012.5 |
| 20260901045002 | 13 | 258 | 4.8 | 14.5 | 0.00 | 0.00 | 0.00 | 82 | 1012.5 |
| 20260901044502 | 13 | 254 | 4.8 | 14.5 | 0.00 | 0.00 | 0.00 | 82 | 1012.5 |
| 20260901044002 | 13 | 252 | 4.8 | 14.5 | 0.00 | 0.00 | 0.00 | 82 | 1012.5 |
| 20260901043502 | 13 | 261 | 4.8 | 14.5 | 0.00 | 0.00 | 0.00 | 82 | 1012.5 |
| 20260901043023 | 13 | 259 | 4.8 | 12.9 | 0.00 | 0.00 | 0.00 | 82 | 1012.5 |
| 20260901042502 | 13 | 251 | 4.8 | 16.1 | 0.00 | 0.00 | 0.00 | 82 | 1012.5 |
| 20260901042002 | 13 | 252 | 6.4 | 16.1 | 0.00 | 0.00 | 0.00 | 82 | 1012.5 |
| 20260901041502 | 13 | 247 | 6.4 | 16.1 | 0.00 | 0.00 | 0.00 | 82 | 1012.5 |
| 20260901041002 | 13 | 246 | 6.4 | 20.9 | 0.00 | 0.00 | 0.00 | 82 | 1012.5 |
| 20260901040523 | 13 | 248 | 4.8 | 20.9 | 0.00 | 0.00 | 0.00 | 82 | 1012.5 |
| 20260901040002 | 13 | 257 | 4.8 | 19.3 | 0.00 | 0.00 | 0.00 | 82 | 1012.5 |
| 20260901035523 | 13 | 258 | 4.8 | 19.3 | 0.00 | 0.00 | 0.00 | 82 | 1012.5 |
| 20260901035002 | 13 | 253 | 3.2 | 12.9 | 0.00 | 0.00 | 0.00 | 82 | 1012.5 |
| 20260901034523 | 13 | 260 | 4.8 | 14.5 | 0.00 | 0.00 | 0.00 | 82 | 1012.5 |
| 20260901034002 | 13 | 260 | 6.4 | 16.1 | 0.00 | 0.00 | 0.00 | 82 | 1012.5 |
| 20260901033502 | 13 | 258 | 6.4 | 16.1 | 0.00 | 0.00 | 0.00 | 82 | 1012.5 |
| 20260901033002 | 13 | 267 | 4.8 | 14.5 | 0.00 | 0.00 | 0.00 | 82 | 1012.5 |
| 20260901032502 | 13 | 269 | 3.2 | 16.1 | 0.00 | 0.00 | 0.00 | 82 | 1012.5 |
| 20260901032023 | 13 | 267 | 3.2 | 16.1 | 0.00 | 0.00 | 0.00 | 82 | 1012.5 |
| 20260901031502 | 13 | 273 | 3.2 | 9.7 | 0.00 | 0.00 | 0.00 | 82 | 1012.5 |
| 20260901031002 | 13 | 277 | 3.2 | 9.7 | 0.00 | 0.00 | 0.00 | 82 | 1012.5 |
| 20260901030502 | 13 | 262 | 3.2 | 11.3 | 0.00 | 0.00 | 0.00 | 82 | 1012.5 |
| 20260901030002 | 13 | 252 | 4.8 | 14.5 | 0.00 | 0.00 | 0.00 | 81 | 1012.5 |
| 20260901025502 | 13 | 259 | 4.8 | 14.5 | 0.00 | 0.00 | 0.00 | 81 | 1012.5 |
| 20260901025002 | 14 | 262 | 4.8 | 16.1 | 0.00 | 0.00 | 0.00 | 81 | 1012.5 |
| 20260901024506 | 14 | 259 | 4.8 | 16.1 | 0.00 | 0.00 | 0.00 | 81 | 1012.5 |
| 20260901024023 | 14 | 259 | 4.8 | 14.5 | 0.00 | 0.00 | 0.00 | 81 | 1012.5 |
| 20260901023525 | 14 | 271 | 3.2 | 12.9 | 0.00 | 0.00 | 0.00 | 81 | 1012.5 |
| 20260901023002 | 14 | 271 | 4.8 | 16.1 | 0.00 | 0.00 | 0.00 | 82 | 1012.5 |
| 20260901022502 | 14 | 261 | 6.4 | 17.7 | 0.00 | 0.00 | 0.00 | 81 | 1012.5 |
| 20260901022002 | 15 | 262 | 6.4 | 19.3 | 0.00 | 0.00 | 0.00 | 81 | 1012.5 |
| 20260901021502 | 15 | 271 | 4.8 | 19.3 | 0.00 | 0.00 | 0.00 | 80 | 1012.5 |
| 20260901021002 | 15 | 268 | 4.8 | 16.1 | 0.00 | 0.00 | 0.00 | 80 | 1012.5 |
| 20260901020502 | 15 | 267 | 3.2 | 16.1 | 0.00 | 0.00 | 0.00 | 80 | 1012.5 |
| 20260901020002 | 15 | 265 | 3.2 | 11.3 | 0.00 | 0.00 | 0.00 | 80 | 1012.5 |
| 20260901015502 | 15 | 274 | 3.2 | 14.5 | 0.00 | 0.00 | 0.00 | 80 | 1012.5 |
| 20260901015002 | 15 | 277 | 4.8 | 14.5 | 0.00 | 0.00 | 0.00 | 79 | 1012.5 |
| 20260901014523 | 15 | 261 | 4.8 | 14.5 | 0.00 | 0.00 | 0.00 | 79 | 1012.5 |
| 20260901014002 | 15 | 271 | 4.8 | 14.5 | 0.00 | 0.00 | 0.00 | 79 | 1012.5 |
| 20260901013523 | 15 | 279 | 3.2 | 14.5 | 0.00 | 0.00 | 0.00 | 78 | 1012.5 |
| 20260901013002 | 16 | 269 | 3.2 | 12.9 | 0.00 | 0.00 | 0.00 | 78 | 1012.5 |
| 20260901012523 | 16 | 276 | 3.2 | 12.9 | 0.00 | 0.00 | 0.00 | 77 | 1012.5 |
| 20260901012002 | 16 | 266 | 4.8 | 17.7 | 0.00 | 0.00 | 0.00 | 78 | 1012.5 |
| 20260901011502 | 16 | 260 | 6.4 | 20.9 | 0.00 | 0.00 | 0.00 | 77 | 1012.5 |
| 20260901011023 | 16 | 264 | 6.4 | 20.9 | 0.00 | 0.00 | 0.00 | 76 | 1012.5 |
| 20260901010502 | 16 | 271 | 4.8 | 20.9 | 0.00 | 0.00 | 0.00 | 75 | 1012.5 |
| 20260901010002 | 17 | 277 | 3.2 | 12.9 | 0.00 | 0.00 | 0.00 | 76 | 1012.5 |
| 20260901005523 | 17 | 266 | 4.8 | 17.7 | 0.00 | 0.00 | 0.00 | 76 | 1012.5 |
| 20260901005002 | 17 | 259 | 8.0 | 17.7 | 0.00 | 0.00 | 0.00 | 75 | 1012.5 |
| 20260901004502 | 17 | 273 | 6.4 | 16.1 | 0.00 | 0.00 | 0.00 | 75 | 1012.5 |
| 20260901004003 | 17 | 294 | 4.8 | 16.1 | 0.00 | 0.00 | 0.00 | 75 | 1012.5 |
| 20260901003502 | 17 | 281 | 3.2 | 16.1 | 0.00 | 0.00 | 0.00 | 75 | 1012.5 |
| 20260901003023 | 17 | 279 | 3.2 | 16.1 | 0.00 | 0.00 | 0.00 | 76 | 1012.5 |
| 20260901002502 | 17 | 272 | 4.8 | 19.3 | 0.00 | 0.00 | 0.00 | 75 | 1012.5 |
| 20260901002002 | 17 | 273 | 4.8 | 19.3 | 0.00 | 0.00 | 0.00 | 75 | 1012.5 |
| 20260901001502 | 16 | 299 | 4.8 | 12.9 | 0.00 | 0.00 | 0.00 | 76 | 1012.5 |
| 20260901001023 | 16 | 280 | 6.4 | 17.7 | 0.00 | 0.00 | 0.00 | 75 | 1012.5 |
| 20260901000502 | 16 | 264 | 6.4 | 19.3 | 0.00 | 0.00 | 0.00 | 75 | 1012.5 |
| 20260901000002 | 17 | 275 | 6.4 | 19.3 | 0.00 | 0.00 | 0.00 | 75 | 1012.5 |
| 20260831235502 | 17 | 281 | 4.8 | 17.7 | 0.00 | 0.00 | 0.00 | 75 | 1012.5 |
| 20260831235002 | 17 | 281 | 3.2 | 12.9 | 0.00 | 0.00 | 0.00 | 74 | 1012.5 |
| 20260831234502 | 17 | 276 | 4.8 | 19.3 | 0.00 | 0.00 | 0.00 | 74 | 1012.5 |
| 20260831234023 | 17 | 278 | 6.4 | 25.7 | 0.00 | 0.00 | 0.00 | 74 | 1012.5 |
| 20260831233502 | 17 | 270 | 4.8 | 25.7 | 0.00 | 0.00 | 0.00 | 73 | 1012.5 |
| 20260831233002 | 17 | 257 | 6.4 | 17.7 | 0.00 | 0.00 | 0.00 | 74 | 1012.5 |
| 20260831232523 | 17 | 260 | 6.4 | 17.7 | 0.00 | 0.00 | 0.00 | 74 | 1012.5 |
| 20260831232002 | 17 | 268 | 6.4 | 19.3 | 0.00 | 0.00 | 0.00 | 74 | 1012.5 |
| 20260831231502 | 17 | 271 | 4.8 | 19.3 | 0.00 | 0.00 | 0.00 | 73 | 1012.5 |
| 20260831231002 | 17 | 260 | 4.8 | 16.1 | 0.00 | 0.00 | 0.00 | 73 | 1012.5 |
| 20260831230523 | 17 | 267 | 4.8 | 16.1 | 0.00 | 0.00 | 0.00 | 73 | 1012.5 |
| 20260831230002 | 17 | 298 | 3.2 | 16.1 | 0.00 | 0.00 | 0.00 | 74 | 1012.5 |
| 20260831225523 | 17 | 277 | 4.8 | 17.7 | 0.00 | 0.00 | 0.00 | 73 | 1012.5 |
| 20260831225002 | 17 | 256 | 6.4 | 20.9 | 0.00 | 0.00 | 0.00 | 74 | 1012.5 |